CZ-6A DEB

Satellite information

Favourite Embed

Satellite Type and Status

DEBRISIN ORBIT

Key statistics

Satellite CZ-6A DEB at a glance.

Uptime

1074

Days in orbit

Revolutions

≈ 14.7

Per day

Orbit

SSO

Sun Synchronous Orbit

Inclination

98.6

Latest

Satellite identification and parameters

Extended collection of information and parameters for CZ-6A DEB.

Object identification

Identified? True

Debris? True

Object name: CZ-6A DEB

International designator: 2022-151AAX

Object number (NORAD): 55899

Object ID (CCSDS): 55899

Country: PEOPLES REPUBLIC OF CHINA (PRC)

Current information (Y/N): Y

RCS size: SMALL

Orbital parameters

Period: 97.794 minutes

Inclination: 98.6427 deg

SMA: 7031.274 km

Apoapsis: 699.579 km

Periapsis: 606.699 km

RAAN: 346.3894 deg

Eccentricy: 0.00660478

Argument of periapsis: 290.3461 deg

Mean anomaly: 69.0656 deg

Mean motion: 14.72487913 rev/day

Mean motion (dot): 0.00034611 rev/day2

B* drag term: 0.0052527003 1/REarth

Two-line elements (TLE)

Creation date: Oct. 20, 2025, 2:10 a.m.

Reference frame: TEME

Reference center: EARTH

Epoch: Oct. 19, 2025, 9:13 p.m. UTC

TLE line 0: 0 CZ-6A DEB

TLE line 1: 1 55899U 22151AAX 25292.88435711 .00034611 00000-0 52527-2 0 9992

TLE line 2: 2 55899 98.6427 346.3894 0066048 290.3461 69.0656 14.72487913149103

Live tracking on map

Real-time ground track for satellite CZ-6A DEB.

In-orbit conjunctions

A list of the most updated potential collisions computed for object CZ-6A DEB.

Target Orbit TCA Probability of collision Miss distance Type
SL-14 R/B LEO 2025-06-25 05:02:28 0.0006038119 120.0 (m) ROCKET BODY
COSMOS 836 LEO 2024-09-08 16:26:59 0.0005403014 256.0 (m) PAYLOAD

Associated space launch

Chinese satellite reported for atmospheric/ocean/environmental/spatial parameter research purposes, details TBD.

CZ-6A DEB was lifted into orbit during the mission ‘Long March 6A | Yunhai 3’, on board a Long March 6A space rocket.

The launch took place on Nov. 11, 2022, 10:52 p.m. from Launch Complex 9A.

For more information about the launch, click the button.

Launch to space Long March 6A | Yunhai 3
Long March 6A | Yunhai 3

Agency: N/A

Status: Launch Successful

Launch date: Nov. 11, 2022, 10:52 p.m. UTC

Rocket: Long March 6A

Launch pad: Launch Complex 9A

Location: Taiyuan Satellite Launch Center, People's Republic of China

...

Latest news about this satellite

There are no fresh news available about this satellite. Check back as we update our databases every day.


Newsletter sign-up

Weekly statistics, charts and insights to help you stay on top of the space industry.